Surface/Precipitation History
12/16/2014 14:28  to  12/17/2014 14:28
Change End Date:
Date/Time
(MST)
Sf
Temp Chem Water Layer Surface Precipitation
Sf Sub Frz Factor Pct Depth IcePct Cond Salin Type Intens Accum Rate
12/17/2014 14:12 Wet 36.5F 39F 32F 95 0% 0.00 in 0% 147 mhos 0 None None - -
12/17/2014 14:05 Wet 35.2F 39F 32F 95 0% 0.00 in 0% 147 mhos 0 None None - -
12/17/2014 13:55 Wet 34.9F 39F 32F 95 0% 0.00 in 0% 165 mhos 0 None None - -
12/17/2014 13:45 Wet 34.9F 39F 32F 95 0% 0.00 in 0% 147 mhos 0 None None - -
12/17/2014 13:43 Wet 34.9F 39F 32F 95 0% 0.00 in 0% 151 mhos 0 None None - -
12/17/2014 13:35 Wet 34.9F 39F 32F 95 0% 0.00 in 0% 144 mhos 0 None None - -
12/17/2014 13:25 Wet 34.9F 39F 32F 95 0% 0.00 in 0% 165 mhos 0 None None - -
12/17/2014 13:23 Wet 34.9F 39F 32F 95 0% 0.00 in 0% 161 mhos 0 None None - -
12/17/2014 13:15 Wet 34.7F 39F 32F 95 0% 0.00 in 0% 161 mhos 0 None None - -
12/17/2014 13:11 Wet 34.3F 39F 32F 95 0% 0.00 in 0% 154 mhos 0 None None - -
12/17/2014 13:05 Wet 34.2F 39F 32F 95 0% 0.00 in 0% 154 mhos 0 None None - -
12/17/2014 12:55 Wet 34.2F 39F 32F 95 0% 0.00 in 0% 147 mhos 0 None None - -
12/17/2014 12:52 Wet 34.2F 39F 32F 95 0% 0.00 in 0% 151 mhos 0 None None - -
12/17/2014 12:45 Wet 34.2F 39F 32F 95 0% 0.00 in 0% 144 mhos 0 None None - -
12/17/2014 12:41 Wet 34.2F 39F 32F 95 0% 0.00 in 0% 147 mhos 0 None None - -
Date/Time
(MST)
Sf
Temp Chem Water Layer Surface Precipitation
Sf Sub Frz Factor Pct Depth IcePct Cond Salin Type Intens Accum Rate
12/17/2014 12:35 Wet 34.2F 39F 32F 95 0% 0.00 in 0% 151 mhos 0 None None - -
12/17/2014 12:25 Wet 34.3F 39F 32F 95 0% 0.00 in 0% 144 mhos 0 None None - -
12/17/2014 12:21 Wet 34.3F 39F 32F 95 0% 0.00 in 0% 141 mhos 0 None None - -
12/17/2014 12:15 Wet 34.3F 39F 32F 95 0% 0.00 in 0% 147 mhos 0 None None - -
12/17/2014 12:11 Wet 34.2F 39F 32F 95 0% 0.00 in 0% 144 mhos 0 None None - -
12/17/2014 12:05 Wet 34.7F 39F 32F 95 0% 0.00 in 0% 154 mhos 0 None None - -
12/17/2014 11:54 Wet 35.2F 39F 32F 95 0% 0.00 in 0% 154 mhos 0 None None - -
12/17/2014 11:44 Wet 35.6F 39F 32F 95 0% 0.00 in 0% 144 mhos 0 None None - -
12/17/2014 11:44 Wet 35.6F 39F 32F 95 0% 0.00 in 0% 144 mhos 0 None None - -
12/17/2014 11:34 Wet 36.3F 39F 32F 95 0% 0.00 in 0% 151 mhos 0 None None - -
12/17/2014 11:24 Wet 38.3F 39F 32F 95 0% 0.00 in 0% 169 mhos 0 None None - -
12/17/2014 11:15 Wet 38.1F 39F 32F 95 0% 0.00 in 0% 161 mhos 0 None None - -
12/17/2014 11:14 Wet 38.1F 39F 32F 95 0% 0.00 in 0% 165 mhos 0 None None - -
12/17/2014 11:04 Wet 37.6F 39F 32F 95 0% 0.00 in 0% 169 mhos 0 None None - -
12/17/2014 10:56 Wet 37.0F 39F 32F 95 0% 0.00 in 0% 165 mhos 0 None None - -
Date/Time
(MST)
Sf
Temp Chem Water Layer Surface Precipitation
Sf Sub Frz Factor Pct Depth IcePct Cond Salin Type Intens Accum Rate
12/17/2014 10:54 Wet 37.0F 39F 32F 95 0% 0.00 in 0% 165 mhos 0 None None - -
12/17/2014 10:44 Wet 36.5F 39F 32F 95 0% 0.00 in 0% 169 mhos 0 None None - -
12/17/2014 10:42 Wet 36.5F 39F 32F 95 0% 0.00 in 0% 165 mhos 0 None None - -
12/17/2014 10:34 Wet 36.1F 39F 32F 95 0% 0.00 in 0% 161 mhos 0 None None - -
12/17/2014 10:26 Wet 35.8F 39F 32F 95 0% 0.00 in 0% 158 mhos 0 None None - -
12/17/2014 10:24 Wet 35.8F 39F 32F 95 0% 0.00 in 0% 154 mhos 0 None None - -
12/17/2014 10:14 Wet 35.2F 39F 32F 95 0% 0.00 in 0% 174 mhos 0 None None - -
12/17/2014 10:11 Wet 35.2F 39F 32F 95 0% 0.00 in 0% 161 mhos 0 None None - -
12/17/2014 10:04 Wet 34.7F 39F 32F 95 0% 0.00 in 0% 174 mhos 0 None None - -
12/17/2014 09:54 Wet 34.3F 39F 32F 95 0% 0.00 in 0% 169 mhos 0 None None - -
12/17/2014 09:51 Wet 34.0F 39F 32F 95 0% 0.00 in 0% 165 mhos 0 None None - -
12/17/2014 09:44 Wet 33.8F 39F 32F 95 0% 0.00 in 0% 154 mhos 0 None None - -
12/17/2014 09:41 Wet 33.6F 39F 32F 95 0% 0.00 in 0% 158 mhos 0 None None - -
12/17/2014 09:34 Wet 33.3F 39F 32F 95 0% 0.00 in 0% 158 mhos 0 None None - -
12/17/2014 09:29 Wet 32.9F 39F 32F 95 0% 0.00 in 0% 154 mhos 0 None None - -
Date/Time
(MST)
Sf
Temp Chem Water Layer Surface Precipitation
Sf Sub Frz Factor Pct Depth IcePct Cond Salin Type Intens Accum Rate
12/17/2014 09:24 Wet 32.7F 39F 32F 95 0% 0.00 in 0% 161 mhos 0 None None - -
12/17/2014 09:14 Wet 32.2F 39F 32F 95 0% 0.00 in 0% 154 mhos 0 None None - -
12/17/2014 09:11 Wet 32.0F 39F 32F 95 0% 0.00 in 0% 151 mhos 0 None None - -
12/17/2014 09:04 Ice Warning 31.6F 39F 32F 95 0% - 100% 151 mhos 0 None None - -
12/17/2014 08:54 Ice Warning 31.5F 39F 32F 95 0% - 100% 147 mhos 0 None None - -
12/17/2014 08:53 Ice Warning 31.3F 39F 32F 95 0% - 100% 147 mhos 0 None None - -
12/17/2014 08:44 Ice Warning 30.9F 39F 32F 95 0% - 100% 141 mhos 0 None None - -
12/17/2014 08:41 Ice Warning 30.7F 39F 32F 95 0% - 100% 138 mhos 0 None None - -
12/17/2014 08:34 Ice Warning 30.2F 39F 32F 95 0% - 100% 138 mhos 0 None None - -
12/17/2014 08:24 Ice Warning 29.5F 39F 32F 95 0% - 100% 138 mhos 0 None None - -
12/17/2014 08:21 Ice Warning 29.7F 39F 32F 95 0% - 100% 136 mhos 0 None None - -
12/17/2014 08:13 Ice Warning 29.3F 39F 32F 95 0% - 100% 130 mhos 0 None None - -
12/17/2014 08:11 Ice Warning 29.1F 39F 32F 95 0% - 100% 136 mhos 0 None None - -
12/17/2014 08:03 Ice Warning 28.8F 39F 32F 95 0% - 100% 138 mhos 0 None None - -
12/17/2014 07:53 Ice Warning 28.6F 39F 32F 95 0% - 100% 138 mhos 0 None None - -
Date/Time
(MST)
Sf
Temp Chem Water Layer Surface Precipitation
Sf Sub Frz Factor Pct Depth IcePct Cond Salin Type Intens Accum Rate
12/17/2014 07:43 Ice Warning 28.0F 39F 32F 95 0% - 100% 123 mhos 0 None None - -
12/17/2014 07:42 Ice Warning 27.9F 39F 32F 95 0% - 100% 130 mhos 0 None None - -
12/17/2014 07:33 Ice Warning 27.9F 39F 32F 95 0% - 100% 128 mhos 0 None None - -
12/17/2014 07:23 Ice Warning 28.2F 39F 32F 95 0% - 100% 123 mhos 0 None None - -
12/17/2014 07:19 Ice Warning 28.0F 39F 32F 95 0% - 100% 123 mhos 0 None None - -
12/17/2014 07:13 Ice Warning 28.2F 39F 32F 95 0% - 100% 121 mhos 0 None None - -
12/17/2014 07:03 Ice Warning 28.4F 39F 32F 95 0% - 100% 123 mhos 0 None None - -
12/17/2014 06:53 Ice Warning 28.6F 39F 32F 95 0% - 100% 119 mhos 0 None None - -
12/17/2014 06:45 Ice Warning 28.4F 39F 32F 95 0% - 100% 115 mhos 0 None None - -
12/17/2014 06:43 Ice Warning 28.6F 39F 32F 95 0% - 100% 115 mhos 0 None None - -
12/17/2014 06:33 Ice Warning 28.6F 39F 32F 95 0% - 100% 113 mhos 0 None None - -
12/17/2014 06:31 Ice Warning 28.8F 39F 32F 95 0% - 100% 115 mhos 0 None None - -
12/17/2014 06:23 Ice Warning 29.3F 39F 32F 95 0% - 100% 109 mhos 0 None None - -
12/17/2014 06:13 Ice Warning 29.8F 39F 32F 95 0% - 100% 97 mhos 0 None None - -
12/17/2014 06:12 Ice Warning 29.8F 39F 32F 95 0% - 100% 95 mhos 0 None None - -
Date/Time
(MST)
Sf
Temp Chem Water Layer Surface Precipitation
Sf Sub Frz Factor Pct Depth IcePct Cond Salin Type Intens Accum Rate
12/17/2014 06:03 Ice Warning 30.2F 39F 32F 95 0% - 100% 90 mhos 0 None None - -
12/17/2014 06:00 Ice Warning 30.2F 39F 32F 95 0% - 100% 88 mhos 0 None None - -
12/17/2014 05:53 Ice Warning 29.8F 39F 32F 95 0% - 100% 80 mhos 0 None None - -
12/17/2014 05:43 Ice Warning 29.5F 39F 32F 95 0% - 100% 57 mhos 0 None None - -
12/17/2014 05:43 Ice Warning 29.5F 39F 32F 95 0% - 100% 57 mhos 0 None None - -
12/17/2014 05:33 Ice Warning 29.1F 39F 32F 15 0% - 100% 0 mhos 0 None None - -
12/17/2014 05:26 Ice Warning 28.8F 39F 32F 15 0% - 100% 0 mhos 0 None None - -
12/17/2014 05:23 Ice Warning 28.9F 39F 32F 15 0% - 100% 0 mhos 0 None None - -
12/17/2014 05:13 Ice Warning 29.1F 39F 32F 15 0% - 100% 0 mhos 0 None None - -
12/17/2014 05:11 Ice Warning 29.1F 39F 32F 15 0% - 100% 0 mhos 0 None None - -
12/17/2014 05:03 Ice Warning 29.3F 39F 32F 15 0% - 100% 0 mhos 0 None None - -
12/17/2014 04:56 Ice Warning 29.5F 39F 32F 15 0% - 100% 0 mhos 0 None None - -
12/17/2014 04:53 Ice Warning 29.3F 39F 32F 15 0% - 100% 0 mhos 0 None None - -
12/17/2014 04:43 Ice Warning 29.8F 39F 32F 15 0% - 100% 0 mhos 0 None None - -
12/17/2014 04:42 Ice Warning 29.8F 39F 32F 15 0% - 100% 0 mhos 0 None None - -
Date/Time
(MST)
Sf
Temp Chem Water Layer Surface Precipitation
Sf Sub Frz Factor Pct Depth IcePct Cond Salin Type Intens Accum Rate
12/17/2014 04:32 Ice Warning 30.2F 39F 32F 20 0% - 100% 0 mhos 0 None None - -
12/17/2014 04:24 Ice Warning 30.2F 39F 32F 20 0% - 100% 0 mhos 0 None None - -
12/17/2014 04:22 Ice Warning 30.2F 39F 32F 20 0% - 100% 0 mhos 0 None None - -
12/17/2014 04:12 Ice Warning 30.2F 39F 32F 25 0% - 100% 0 mhos 0 None None - -
12/17/2014 04:11 Ice Warning 30.2F 39F 32F 20 0% - 100% 0 mhos 0 None None - -
12/17/2014 04:02 Ice Warning 30.2F 39F 32F 20 0% - 100% 0 mhos 0 None None - -
12/17/2014 03:55 Ice Warning 30.0F 39F 32F 20 0% - 100% 0 mhos 0 None None - -
12/17/2014 03:52 Ice Warning 30.2F 39F 32F 20 0% - 100% 0 mhos 0 None None - -
12/17/2014 03:42 Ice Warning 30.2F 39F 32F 25 0% - 100% 0 mhos 0 None None - -
12/17/2014 03:42 Ice Warning 30.2F 39F 32F 25 0% - 100% 0 mhos 0 None None - -
12/17/2014 03:32 Ice Warning 30.2F 39F 32F 20 0% - 100% 0 mhos 0 None None - -
12/17/2014 03:22 Ice Warning 30.4F 39F 32F 25 0% - 100% 0 mhos 0 None None - -
12/17/2014 03:13 Ice Warning 30.4F 39F 32F 20 0% - 100% 0 mhos 0 None None - -
12/17/2014 03:12 Ice Warning 30.4F 39F 32F 20 0% - 100% 0 mhos 0 None None - -
12/17/2014 03:02 Ice Warning 30.2F 39F 32F 25 0% - 100% 0 mhos 0 None None - -
Date/Time
(MST)
Sf
Temp Chem Water Layer Surface Precipitation
Sf Sub Frz Factor Pct Depth IcePct Cond Salin Type Intens Accum Rate
12/17/2014 02:52 Ice Warning 30.2F 39F 32F 20 0% - 100% 0 mhos 0 None None - -
12/17/2014 02:47 Ice Warning 30.2F 39F 32F 25 0% - 100% 0 mhos 0 None None - -
12/17/2014 02:42 Ice Warning 30.2F 39F 32F 25 0% - 100% 0 mhos 0 None None - -
12/17/2014 02:32 Ice Warning 30.4F 39F 32F 30 0% - 100% 0 mhos 0 None None - -
12/17/2014 02:22 Ice Warning 30.6F 39F 32F 25 0% - 100% 0 mhos 0 None None - -
12/17/2014 02:18 Ice Warning 30.6F 39F 32F 25 0% - 100% 0 mhos 0 None None - -
12/17/2014 02:12 Ice Warning 30.6F 39F 32F 25 0% - 100% 0 mhos 0 None None - -
12/17/2014 02:02 Ice Warning 30.6F 39F 32F 25 0% - 100% 0 mhos 0 None None - -
12/17/2014 01:52 Ice Warning 30.6F 39F 32F 25 0% - 100% 0 mhos 0 None None - -
12/17/2014 01:43 Ice Warning 30.6F 39F 32F 25 0% - 100% 0 mhos 0 None None - -
12/17/2014 01:42 Ice Warning 30.6F 39F 32F 30 0% - 100% 0 mhos 0 None None - -
12/17/2014 01:32 Ice Warning 30.4F 39F 32F 25 0% - 100% 0 mhos 0 None None - -
12/17/2014 01:22 Ice Warning 30.6F 39F 32F 25 0% - 100% 0 mhos 0 None None - -
12/17/2014 01:16 Ice Warning 30.6F 39F 32F 20 0% - 100% 0 mhos 0 None None - -
12/17/2014 01:12 Ice Warning 30.7F 39F 32F 25 0% - 100% 0 mhos 0 None None - -
Date/Time
(MST)
Sf
Temp Chem Water Layer Surface Precipitation
Sf Sub Frz Factor Pct Depth IcePct Cond Salin Type Intens Accum Rate
12/17/2014 01:01 Ice Warning 30.4F 39F 32F 15 0% - 100% 0 mhos 0 None None - -
12/17/2014 00:51 Ice Warning 30.2F 39F 32F 20 0% - 100% 0 mhos 0 None None - -
12/17/2014 00:47 Ice Warning 30.2F 39F 32F 15 0% - 100% 0 mhos 0 None None - -
12/17/2014 00:41 Ice Warning 30.2F 39F 32F 15 0% - 100% 0 mhos 0 None None - -
12/17/2014 00:31 Ice Warning 30.4F 39F 32F 15 0% - 100% 0 mhos 0 None None - -
12/17/2014 00:25 Ice Warning 30.2F 39F 32F 15 0% - 100% 0 mhos 0 None None - -
12/17/2014 00:21 Ice Warning 30.2F 39F 32F 15 0% - 100% 0 mhos 0 None None - -
12/17/2014 00:14 Ice Warning 30.2F 39F 32F 20 0% - 100% 0 mhos 0 None None - -
12/17/2014 00:11 Ice Warning 30.0F 39F 32F 20 0% - 100% 0 mhos 0 None None - -
12/17/2014 00:01 Ice Warning 30.2F 39F 32F 15 0% - 100% 0 mhos 0 None None - -
12/16/2014 23:58 Ice Warning 30.2F 39F 32F 15 0% - 100% 0 mhos 0 None None - -
12/16/2014 23:51 Ice Warning 30.0F 39F 32F 15 0% - 100% 0 mhos 0 None None - -
12/16/2014 23:42 Ice Warning 29.8F 39F 32F 15 0% - 100% 0 mhos 0 None None - -
12/16/2014 23:41 Ice Warning 29.8F 39F 32F 15 0% - 100% 0 mhos 0 None None - -
12/16/2014 23:31 Ice Warning 29.7F 39F 32F 15 0% - 100% 0 mhos 0 None None - -
Date/Time
(MST)
Sf
Temp Chem Water Layer Surface Precipitation
Sf Sub Frz Factor Pct Depth IcePct Cond Salin Type Intens Accum Rate
12/16/2014 23:26 Ice Warning 29.3F 39F 32F 15 0% - 100% 0 mhos 0 None None - -
12/16/2014 23:21 Ice Warning 29.1F 39F 32F 15 0% - 100% 0 mhos 0 None None - -
12/16/2014 23:12 Ice Warning 28.9F 39F 32F 15 0% - 100% 0 mhos 0 None None - -
12/16/2014 23:11 Ice Warning 28.9F 39F 32F 15 0% - 100% 0 mhos 0 None None - -
12/16/2014 23:01 Ice Warning 28.6F 39F 32F 10 0% - 100% 0 mhos 0 None None - -
12/16/2014 22:56 Ice Warning 28.0F 39F 32F 10 0% - 100% 0 mhos 0 Yes - - -
12/16/2014 22:51 Ice Warning 28.0F 39F 32F 10 0% - 100% 0 mhos 0 Yes - - -
12/16/2014 22:43 Ice Warning 28.0F 39F 32F 10 0% - 100% 0 mhos 0 Yes - - -
12/16/2014 22:41 Ice Warning 28.0F 39F 32F 5 0% - 100% 0 mhos 0 Yes - - -
12/16/2014 22:31 Ice Warning 27.9F 39F 32F 5 0% - 100% 0 mhos 0 Yes - - -
12/16/2014 22:21 Ice Warning 27.7F 39F 32F 5 0% - 100% 0 mhos 0 None None - -
12/16/2014 22:17 Ice Warning 27.7F 39F 32F 5 0% - 100% 0 mhos 0 None None - -
12/16/2014 22:11 Ice Warning 27.5F 39F 32F 10 0% - 100% 0 mhos 0 Yes - - -
12/16/2014 22:01 Ice Warning 27.3F 39F 32F 10 0% - 100% 0 mhos 0 Yes - - -
12/16/2014 21:51 Ice Warning 27.3F 39F 32F 15 0% - 100% 0 mhos 0 None None - -
Date/Time
(MST)
Sf
Temp Chem Water Layer Surface Precipitation
Sf Sub Frz Factor Pct Depth IcePct Cond Salin Type Intens Accum Rate
12/16/2014 21:45 Ice Watch 27.3F 39F - 10 - - - 0 mhos 0 None None - -
12/16/2014 21:41 Ice Watch 27.1F 39F - 10 - - - 0 mhos 0 None None - -
12/16/2014 21:31 Ice Watch 27.1F 39F - 10 - - - 0 mhos 0 None None - -
12/16/2014 21:20 Ice Watch 27.1F 39F - 15 - - - 0 mhos 0 None None - -
12/16/2014 21:14 Ice Watch 27.1F 39F - 10 - - - 0 mhos 0 None None - -
12/16/2014 21:10 Ice Watch 27.0F 39F - 10 - - - 0 mhos 0 None None - -
12/16/2014 21:00 Ice Watch 26.8F 39F - 10 - - - 0 mhos 0 None None - -
12/16/2014 20:50 Ice Watch 26.6F 39F - 10 - - - 0 mhos 0 None None - -
12/16/2014 20:47 Ice Watch 26.6F 39F - 10 - - - 0 mhos 0 None None - -
12/16/2014 20:40 Ice Watch 26.4F 39F - 15 - - - 0 mhos 0 None None - -
12/16/2014 20:30 Ice Watch 26.2F 39F - 10 - - - 0 mhos 0 None None - -
12/16/2014 20:20 Ice Watch 26.2F 39F - 15 - - - 0 mhos 0 None None - -
12/16/2014 20:17 Ice Watch 26.1F 39F - 10 - - - 0 mhos 0 None None - -
12/16/2014 20:10 Ice Watch 26.1F 40F - 10 - - - 0 mhos 0 None None - -
12/16/2014 20:00 Ice Watch 26.1F 39F - 10 - - - 0 mhos 0 None None - -
Date/Time
(MST)
Sf
Temp Chem Water Layer Surface Precipitation
Sf Sub Frz Factor Pct Depth IcePct Cond Salin Type Intens Accum Rate
12/16/2014 19:50 Ice Watch 25.9F 39F - 10 - - - 0 mhos 0 None None - -
12/16/2014 19:43 Ice Watch 25.9F 39F - 10 - - - 0 mhos 0 None None - -
12/16/2014 19:40 Ice Watch 25.9F 39F - 10 - - - 0 mhos 0 None None - -
12/16/2014 19:30 Ice Watch 25.9F 40F - 10 - - - 0 mhos 0 None None - -
12/16/2014 19:20 Ice Watch 25.9F 40F - 10 - - - 0 mhos 0 None None - -
12/16/2014 19:17 Ice Watch 25.9F 39F - 10 - - - 0 mhos 0 None None - -
12/16/2014 19:10 Ice Watch 25.9F 39F - 10 - - - 0 mhos 0 None None - -
12/16/2014 19:00 Ice Watch 25.9F 40F - 10 - - - 0 mhos 0 None None - -
12/16/2014 18:50 Ice Watch 25.9F 39F - 10 - - - 0 mhos 0 None None - -
12/16/2014 18:47 Ice Watch 25.7F 40F - 10 - - - 0 mhos 0 None None - -
12/16/2014 18:40 Ice Watch 25.7F 40F - 10 - - - 0 mhos 0 None None - -
12/16/2014 18:30 Ice Watch 25.7F 40F - 10 - - - 0 mhos 0 None None - -
12/16/2014 18:20 Ice Watch 25.9F 40F - 10 - - - 0 mhos 0 None None - -
12/16/2014 18:18 Ice Watch 25.9F 40F - 10 - - - 0 mhos 0 None None - -
12/16/2014 18:10 Ice Watch 25.9F 39F - 10 - - - 0 mhos 0 None None - -
Date/Time
(MST)
Sf
Temp Chem Water Layer Surface Precipitation
Sf Sub Frz Factor Pct Depth IcePct Cond Salin Type Intens Accum Rate
12/16/2014 18:00 Ice Watch 25.9F 40F - 10 - - - 0 mhos 0 None None - -
12/16/2014 17:57 Ice Watch 25.9F 40F - 10 - - - 0 mhos 0 None None - -
12/16/2014 17:49 Ice Watch 26.1F 40F - 10 - - - 0 mhos 0 None None - -
12/16/2014 17:41 Ice Watch 26.1F 40F - 5 - - - 0 mhos 0 None None - -
12/16/2014 17:39 Ice Watch 26.1F 40F - 5 - - - 0 mhos 0 None None - -
12/16/2014 17:29 Ice Watch 26.1F 40F - 10 - - - 0 mhos 0 None None - -
12/16/2014 17:19 Ice Watch 26.2F 40F - 5 - - - 0 mhos 0 None None - -
12/16/2014 17:09 Ice Watch 26.2F 40F - 10 - - - 0 mhos 0 None None - -
12/16/2014 16:59 Ice Watch 26.2F 40F - 10 - - - 0 mhos 0 None None - -
12/16/2014 16:49 Ice Watch 26.4F 40F - 10 - - - 0 mhos 0 None None - -
12/16/2014 16:48 Ice Watch 26.6F 40F - 10 - - - 0 mhos 0 None None - -
12/16/2014 16:39 Ice Watch 26.8F 40F - 10 - - - 0 mhos 0 None None - -
12/16/2014 16:29 Ice Watch 27.1F 40F - 10 - - - 0 mhos 0 None None - -
12/16/2014 16:19 Ice Watch 27.3F 40F - 10 - - - 0 mhos 0 None None - -
12/16/2014 16:18 Ice Watch 27.3F 40F - 10 - - - 0 mhos 0 None None - -
Date/Time
(MST)
Sf
Temp Chem Water Layer Surface Precipitation
Sf Sub Frz Factor Pct Depth IcePct Cond Salin Type Intens Accum Rate
12/16/2014 16:09 Ice Watch 27.7F 40F - 10 - - - 0 mhos 0 None None - -
12/16/2014 15:59 Ice Watch 27.9F 40F - 5 - - - 0 mhos 0 None None - -
12/16/2014 15:51 Ice Watch 28.0F 40F - 5 - - - 0 mhos 0 None None - -
12/16/2014 15:49 Ice Watch 27.9F 40F - 5 - - - 0 mhos 0 None None - -
12/16/2014 15:41 Ice Watch 28.0F 40F - 5 - - - 0 mhos 0 None None - -
12/16/2014 15:39 Ice Watch 28.0F 40F - 5 - - - 0 mhos 0 None None - -
12/16/2014 15:29 Ice Watch 27.7F 40F - 10 - - - 0 mhos 0 None None - -
12/16/2014 15:19 Ice Watch 27.5F 40F - 10 - - - 0 mhos 0 None None - -
12/16/2014 15:12 Ice Watch 27.5F 40F - 10 - - - 0 mhos 0 None None - -
12/16/2014 15:09 Ice Watch 27.5F 40F - 10 - - - 0 mhos 0 None None - -
12/16/2014 14:59 Ice Watch 27.7F 40F - 5 - - - 0 mhos 0 None None - -
12/16/2014 14:56 Ice Watch 27.7F 40F - 10 - - - 0 mhos 0 None None - -
12/16/2014 14:49 Ice Watch 28.0F 40F - 5 - - - 0 mhos 0 None None - -
12/16/2014 14:41 Ice Watch 28.8F 40F - 5 - - - 0 mhos 0 None None - -
12/16/2014 14:39 Ice Watch 28.9F 40F - 5 - - - 0 mhos 0 None None - -
Date/Time
(MST)
Sf
Temp Chem Water Layer Surface Precipitation
Sf Sub Frz Factor Pct Depth IcePct Cond Salin Type Intens Accum Rate
12/16/2014 14:29 Ice Watch 29.5F 40F - 5 - - - 0 mhos 0 None None - -
Change End Date:
Copyright © 1998-2005 Surface Systems, Inc.
All Rights Reserved
Send comments about the data to:
SCAN Web ® is a registered trademark of Surface Systems, Inc.
SCAN Web Version 5.6